Location: ?
(35.4064°N, 139.3593°E)
Time: 19:08:35
(UTC+00:00)

BlueWalker 3 - Visible Passes

Search period start: 06 December 2025 00:00
Search period end: 16 December 2025 00:00
Orbit: 455 x 462 km, 53.2° (Epoch: 06 December)

Date Brightness Start Highest point End Pass type
(mag) Time Alt. Az. Time Alt. Az. Time Alt. Az.
06 Dec 3.8 08:16:09 10° N 08:17:40 12° NNE 08:18:33 11° NE visible
06 Dec 4.7 09:52:06 10° NW 09:52:22 12° NW 09:52:22 12° NW visible
07 Dec 2.9 09:17:21 10° NW 09:19:36 33° NNW 09:19:36 33° NNW visible
08 Dec 2.2 08:42:36 10° NNW 08:46:04 41° NE 08:47:09 32° E visible
08 Dec 5.2 10:20:55 10° W 10:20:59 10° W 10:20:59 10° W visible
09 Dec 2.6 08:07:54 10° NNW 08:11:11 32° NE 08:14:28 10° ESE visible
09 Dec 4.0 09:45:40 10° WNW 09:48:35 23° SW 09:48:59 22° SW visible
10 Dec 3.6 09:10:34 10° WNW 09:13:47 31° SW 09:17:00 10° SSE visible
11 Dec 3.0 08:35:32 10° WNW 08:38:59 42° SW 08:42:24 10° SSE visible
12 Dec 2.4 08:00:34 10° NW 08:04:07 60° SW 08:07:41 10° SSE visible
15 Dec 5.3 07:54:42 10° W 07:56:31 13° SW 07:58:21 10° SSW visible
